Вернуться в каталог

COSMOS 1275 DEB

АктивенPO
NORAD 13477·DEBRIS·🇷🇺 Russia

Запущен Jun 4, 1981 с Plesetsk Cosmodrome

Loading…

Ближайшие Пролёты (ближайшие 24 часа)

TLE

СвежийSource: Space-Track

Эпоха: Sep 14, 2026, 08:18 UTC

1 13477U 81053FX  26257.34615307  .00005092  00000-0  15433-2 0  9994
2 13477  82.9901 223.8389 0052219  44.9441 315.5960 14.41326734258248

Отслеживайте COSMOS 1275 DEB в реальном времени с AllMySat

Download on the App Store